This demonstration page uses our WeatherBlox Daily Observations layout. Learn more.

Left ArrowRight Arrow

38.20091, -84.87328

Hourly Observations for January 17, 2016

Temp ( °F °C ) Dew Point ( °F °C ) Humidity (%) Winds ( mph kmh ) Pressure ( in mb ) Visibility ( mi km ) Precip ( " mm )
12:53 am 00:53 Cloudy 31 -0.6 23 -5 72 72 WNW 3 6 29.98 1015 10 16 0.00 0.00
1:53 am 01:53 Cloudy 31 -0.6 23 -5 72 72 Calm 29.94 1014 10 16 0.00 0.00
2:53 am 02:53 Cloudy 30 -1.1 24 -4.4 79 79 NNW 5 7 29.93 1014 10 16 0.00 0.00
3:53 am 03:53 Cloudy 30 -1.1 23 -5 75 75 NNW 6 9 29.91 1013 10 16 0.00 0.00
4:53 am 04:53 Cloudy 30 -1.1 23 -5 75 75 NW 5 7 29.93 1014 10 16 0.00 0.00
5:53 am 05:53 Cloudy 29 -1.7 22 -5.6 75 75 NNW 6 9 29.95 1014 10 16 0.00 0.00
6:53 am 06:53 Cloudy 29 -1.7 20 -6.7 69 69 WNW 3 6 29.97 1015 10 16 0.00 0.00
7:53 am 07:53 Cloudy 29 -1.7 20 -6.7 69 69 WNW 3 6 29.98 1015 10 16 0.00 0.00
8:53 am 08:53 Cloudy 28 -2.2 20 -6.7 72 72 W 8 13 29.98 1015 10 16 0.00 0.00
9:53 am 09:53 Cloudy 28 -2.2 18 -7.8 66 66 WNW 9 15 30.03 1017 10 16 0.00 0.00
10:43 am 10:43 Partly Cloudy 30 -1.1 19 -7.2 64 64 W 5 7 30.06 1018 10 16 0.00 0.00
10:53 am 10:53 Mostly Sunny 31 -0.6 19 -7.2 61 61 WSW 8 13 30.03 1017 10 16 0.00 0.00
11:53 am 11:53 Cloudy 32 0 19 -7.2 59 59 VRB 7 11 30.01 1016 10 16 0.00 0.00
12:53 pm 12:53 Mostly Cloudy 34 1.1 19 -7.2 54 54 WNW 13 20 29.98 1015 10 16 0.00 0.00
1:53 pm 13:53 Cloudy 31 -0.6 18 -7.8 59 59 WNW 9 15 29.98 1015 10 16 0.00 0.00
2:53 pm 14:53 Cloudy 31 -0.6 19 -7.2 61 61 W 9 15 29.98 1015 10 16 0.00 0.00
3:15 pm 15:15 Cloudy with Light Snow 30 -1.1 19 -7.2 64 64 WNW 12 19 30.03 1017 9 14 0.00 0.03
3:26 pm 15:26 Cloudy with Light Snow 29 -1.7 19 -7.2 66 66 W 12 19 30.03 1017 8 13 0.00 0.03
3:53 pm 15:53 Cloudy with Light Snow 29 -1.7 19 -7.2 66 66 VRB 7 11 29.99 1016 7 11 0.00 0.03
4:29 pm 16:29 Cloudy with Light Snow 28 -2.2 19 -7.2 69 69 NW 14 22 30.03 1017 5 8 0.00 0.03
4:40 pm 16:40 Cloudy with Light Snow 26 -3.3 19 -7.2 75 75 WNW 9 15 30.06 1018 2 3 0.00 0.03
4:53 pm 16:53 Cloudy with Light Snow 25 -3.9 18 -7.8 75 75 WNW 14 22 30.02 1017 3 4 0.00 0.03
5:04 pm 17:04 Cloudy with Light Snow 25 -3.9 17 -8.3 72 72 WNW 15 24 30.06 1018 4 6 0.00 0.03
5:15 pm 17:15 Cloudy with Light Snow 25 -3.9 15 -9.4 66 66 WNW 12 19 30.06 1018 8 13 0.00 0.03
5:53 pm 17:53 Mostly Cloudy 24 -4.4 13 -10.6 62 62 WNW 8 13 30.05 1018 10 16 0.00 0.03
6:06 pm 18:06 Mostly Cloudy 24 -4.4 13 -10.6 62 62 WNW 14 22 30.09 1019 10 16 0.00 0.00
6:43 pm 18:43 Partly Cloudy 21 -6.1 10 -12.2 62 62 WNW 16 26 30.12 1020 10 16 0.00 0.00
6:53 pm 18:53 Mostly Clear 20 -6.7 9 -12.8 62 62 WNW 18 30 30.11 1020 10 16 0.00 0.00
7:53 pm 19:53 Clear 18 -7.8 5 -15 57 57 WNW 12 19 30.14 1021 10 16 0.00 0.00
8:53 pm 20:53 Mostly Clear 16 -8.9 4 -15.6 59 59 WNW 12 19 30.16 1022 10 16 0.00 0.00
9:53 pm 21:53 Clear 14 -10 1 -17.2 56 56 W 10 17 30.19 1023 10 16 0.00 0.00
10:53 pm 22:53 Clear 12 -11.1 -1 -18.3 56 56 WNW 9 15 30.21 1023 10 16 0.00 0.00
11:53 pm 23:53 Clear 10 -12.2 -1 -18.3 61 61 WNW 10 17 30.24 1024 10 16 0.00 0.00

Powered by AerisWeather